Temp
14 12 11 11 11 11 11 11 10 9 9 8 8 7 7 7 6 6 6 6 5 5 5 4 3 3 2 2 2 2 2 2 2 2 2 2 1 1 1 1 1 0 0
13 11 10 10 10 10 10 10 9 9 8 8 7 7 6 6 5 6 6 5 5 4 4 3 3 3 2 2 2 2 1 1 1 1 1 1 1 1 1 -0 -0 0 -0
10 9 9 10 10 10 9 9 8 8 7 7 6 6 6 5 5 5 4 4 4 4 3 3 2 2 1 1 1 1 1 1 1 1 1 0 0 0 -1 -0 -0 0 -0
9 9 9 9 9 9 8 8 7 7 6 6 5 5 4 4 3 3 3 4 4 3 3 2 2 1 1 0 -1 -1 -0 -0 -0 -0 -1 -1 -1 -1 -0 -0 -0 -1 -1
9 9 9 9 8 8 7 7 6 6 5 5 4 4 3 3 3 2 2 2 3 3 2 2 2 1 -0 -1 -1 -1 -1 -1 -1 -2 -2 -1 -1 -1 -1 -1 -1 -2 -2
8 8 8 7 7 6 6 5 5 4 4 4 3 3 3 2 1 0 -0 0 1 2 2 1 1 0 0 -0 -1 -1 -1 -1 -2 -2 -2 -1 -1 -1 -2 -2 -3 -3 -3
6 6 6 6 5 5 5 5 4 4 4 3 3 2 2 2 1 -1 -1 -1 0 1 1 0 -0 0 -0 -1 -1 -1 -2 -2 -2 -2 -1 -1 -2 -2 -3 -3 -3 -3 -3
5 5 5 5 5 5 5 4 4 4 3 3 2 2 1 1 0 -1 -2 -1 0 0 0 0 -0 -0 -1 -1 -2 -2 -3 -3 -2 -1 -2 -2 -3 -3 -4 -4 -4 -4 -4
4 5 5 5 5 4 4 4 3 3 2 2 1 1 1 1 -0 -2 -2 -1 -0 -0 0 -0 -0 -1 -1 -1 -2 -3 -3 -2 -2 -2 -3 -3 -3 -2 -3 -3 -4 -4 -4
4 5 5 5 4 3 3 2 2 2 1 1 1 1 0 -0 -1 -2 -2 -2 -1 -1 -1 -1 -1 -1 -1 -1 -2 -3 -3 -3 -3 -4 -4 -3 -3 -3 -3 -3 -3 -5 -5
5 4 4 3 3 2 2 2 2 1 1 1 1 1 1 -0 -1 -2 -3 -3 -2 -2 -2 -2 -2 -2 -2 -2 -3 -3 -4 -3 -4 -4 -4 -4 -4 -4 -3 -4 -5 -5 -5
3 2 2 2 2 2 1 1 1 1 1 1 1 1 1 0 -1 -2 -3 -3 -2 -2 -2 -3 -2 -2 -2 -3 -4 -4 -4 -4 -5 -4 -4 -4 -5 -5 -5 -5 -6 -6 -6
2 2 1 1 1 1 1 1 1 0 1 1 0 0 0 -1 -1 -2 -2 -2 -2 -2 -3 -3 -3 -3 -3 -4 -4 -4 -4 -4 -4 -5 -5 -5 -5 -6 -6 -6 -6 -5 -5
2 1 1 1 1 0 -0 -0 0 0 0 -0 -0 -1 -1 -1 -2 -2 -3 -3 -3 -3 -3 -4 -4 -4 -4 -4 -4 -4 -4 -5 -5 -5 -6 -6 -6 -6 -6 -6 -6 -6 -6
1 1 1 1 1 0 -0 -1 -1 -1 -2 -2 -2 -3 -3 -3 -3 -4 -4 -4 -4 -4 -4 -5 -4 -4 -4 -4 -5 -5 -5 -6 -6 -6 -6 -7 -7 -7 -6 -7 -6 -6 -6
1 1 1 0 -0 -0 -1 -1 -1 -2 -3 -4 -5 -5 -5 -4 -4 -5 -5 -4 -4 -5 -5 -5 -4 -5 -5 -5 -6 -6 -6 -7 -7 -7 -7 -7 -7 -7 -7 -6 -6 -6 -6
1 0 -1 -0 -0 -1 -1 -1 -1 -2 -2 -4 -4 -5 -5 -5 -5 -5 -5 -5 -5 -5 -5 -5 -6 -6 -6 -6 -6 -7 -7 -7 -7 -7 -7 -7 -7 -7 -7 -7 -6 -6 -6
-1 -1 -1 -1 -1 -1 -2 -2 -2 -2 -3 -3 -3 -4 -5 -5 -6 -5 -5 -5 -6 -6 -6 -6 -6 -6 -7 -7 -7 -8 -8 -8 -8 -8 -7 -7 -7 -7 -7 -7 -6 -6 -6
-1 -1 -1 -2 -2 -3 -3 -3 -3 -3 -3 -4 -4 -4 -5 -5 -5 -5 -5 -6 -6 -6 -7 -7 -7 -7 -7 -8 -8 -8 -8 -8 -8 -7 -8 -8 -7 -7 -7 -6 -6 -5 -4
-3 -3 -2 -2 -3 -3 -3 -3 -3 -4 -4 -4 -4 -5 -5 -6 -6 -6 -6 -7 -7 -7 -7 -7 -8 -8 -8 -8 -9 -9 -9 -9 -8 -8 -8 -8 -8 -7 -7 -6 -6 -5 -5
-2 -3 -3 -3 -3 -4 -4 -4 -4 -5 -5 -5 -5 -6 -6 -6 -7 -7 -7 -7 -7 -8 -8 -8 -9 -9 -9 -9 -9 -9 -9 -9 -9 -9 -8 -8 -7 -7 -7 -6 -5 -5 -4
-3 -4 -4 -4 -5 -5 -5 -5 -5 -5 -6 -6 -6 -6 -6 -7 -7 -7 -8 -8 -8 -9 -9 -9 -9 -10 -9 -9 -9 -9 -9 -9 -9 -9 -8 -8 -8 -7 -6 -6 -5 -4 -3
-4 -4 -5 -5 -5 -6 -5 -5 -6 -6 -6 -7 -7 -7 -7 -7 -8 -8 -9 -9 -9 -10 -10 -10 -10 -9 -9 -9 -9 -9 -9 -9 -8 -8 -8 -8 -7 -7 -6 -4 -3 -3 -3
-5 -5 -5 -5 -6 -6 -6 -6 -6 -7 -7 -7 -7 -8 -8 -9 -9 -9 -10 -10 -10 -10 -10 -10 -10 -9 -8 -8 -8 -8 -7 -6 -7 -7 -6 -5 -4 -3 -3 -3 -3 -4 -3
-6 -6 -6 -6 -6 -7 -7 -7 -7 -7 -8 -8 -9 -9 -9 -10 -10 -10 -10 -10 -10 -10 -10 -9 -8 -8 -7 -7 -6 -5 -4 -4 -5 -3 -4 -4 -3 -3 -3 -3 -4 -4 -3
-7 -7 -7 -7 -7 -7 -7 -8 -8 -8 -9 -9 -10 -10 -10 -10 -10 -10 -10 -10 -10 -10 -9 -8 -7 -7 -6 -6 -4 -4 -3 -3 -3 -3 -3 -3 -3 -3 -3 -3 -3 -4 -4
Height
705 713 720 727 736 741 749 756 762 770 775 780 784 788 791 793 794 796 797 797 797 797 796 795 793 792 790 788 785 783 780 778 770 763 763 760 757 753 749 745 741 737 731
706 713 719 726 735 742 751 756 763 769 774 779 783 787 790 792 793 795 796 796 796 794 793 791 790 789 787 785 782 779 776 773 768 759 758 754 751 748 743 739 735 731 724
708 713 721 728 735 744 751 756 763 769 774 778 782 785 788 790 792 794 795 794 793 792 790 789 788 786 784 781 778 776 773 768 764 757 751 750 746 742 737 733 728 722 718
709 714 720 729 738 745 752 758 765 769 774 779 782 784 786 789 790 792 793 792 790 788 787 786 784 782 780 777 776 773 769 765 760 755 749 744 741 737 734 726 720 717 711
709 716 725 731 740 748 754 761 767 772 775 778 781 784 786 787 789 789 790 789 787 785 783 781 779 778 776 774 772 769 766 761 757 752 745 739 735 731 727 723 717 712 705
712 719 727 735 743 750 757 763 768 774 776 778 782 784 785 786 786 787 787 786 784 782 780 778 776 774 772 769 767 764 762 757 752 747 740 736 730 727 723 719 715 708 697
714 726 732 738 744 751 759 763 772 777 777 779 782 784 784 785 784 785 784 783 781 779 777 775 772 770 768 765 763 760 757 753 748 744 736 732 726 723 720 713 708 703 696
727 731 739 736 747 755 760 766 774 778 778 780 782 782 783 783 783 783 782 780 778 775 774 771 769 766 764 761 758 754 750 746 742 737 733 728 723 718 714 708 703 697 688
730 740 739 744 750 758 765 771 775 776 778 779 780 781 781 782 781 780 779 777 775 772 770 767 764 762 760 757 753 748 743 739 735 731 727 722 716 711 708 703 697 693 681
737 740 743 751 757 764 768 771 773 776 777 778 779 780 781 780 780 778 777 775 772 769 767 764 761 759 755 753 749 744 738 733 729 724 719 715 711 706 703 699 694 688 681
737 745 752 758 762 765 768 771 774 776 777 778 779 779 778 778 777 776 775 773 770 767 764 761 758 755 752 748 744 740 736 730 725 721 715 710 706 702 697 693 690 685 677
745 750 755 759 763 767 770 772 774 776 777 777 777 777 777 776 775 774 773 771 768 764 761 757 754 751 746 742 739 735 732 727 723 717 712 707 702 697 692 687 682 677 671
748 754 758 763 766 768 771 773 775 776 776 776 776 776 775 774 773 771 770 768 765 761 758 754 750 746 742 738 735 731 728 724 720 715 709 703 698 692 686 680 674 668 661
753 758 762 765 768 771 773 774 775 776 776 776 776 775 773 772 770 769 767 765 761 758 754 750 746 742 738 735 731 727 725 722 717 712 706 700 694 687 680 675 668 661 654
758 762 766 769 771 773 774 776 777 777 777 776 775 774 772 770 769 767 765 761 758 754 750 746 742 738 735 732 728 726 723 719 713 708 702 695 689 683 675 670 664 656 650
762 766 769 771 773 775 776 776 776 775 775 774 773 772 770 768 767 764 761 758 754 751 747 743 740 737 735 732 728 723 719 715 710 704 698 692 685 679 671 663 659 653 645
765 769 771 774 775 776 776 776 775 774 772 771 770 769 768 766 763 760 757 754 751 748 746 742 740 737 734 730 726 722 716 711 706 700 694 687 681 674 668 660 653 647 639
769 771 774 775 776 776 776 775 774 773 771 770 769 768 765 763 761 758 755 752 749 746 744 741 738 735 732 728 724 719 713 707 701 695 689 683 676 670 663 656 649 642 634
773 774 775 775 776 776 775 774 773 773 771 769 767 765 764 761 758 755 753 751 748 745 742 740 736 733 729 726 721 715 710 703 697 691 685 678 672 666 658 651 644 637 630
773 774 775 776 776 775 774 774 773 772 770 767 765 764 761 759 756 753 751 749 746 743 740 737 734 730 726 722 716 711 705 699 693 687 680 674 667 661 653 646 639 632 625
774 775 775 776 775 775 774 773 772 770 769 767 765 763 761 758 755 752 749 747 744 741 738 734 730 727 722 717 712 707 701 695 689 682 675 668 662 655 648 642 634 627 620
775 775 775 775 774 773 773 772 771 769 768 765 763 760 758 756 753 750 748 745 742 739 735 732 727 723 718 712 707 702 696 690 683 677 671 664 657 651 644 637 630 623 618
775 775 774 774 773 773 772 770 769 767 766 763 761 759 756 753 751 748 745 742 739 735 732 728 723 717 712 708 703 698 692 685 678 673 666 660 653 646 640 633 628 623 618
774 774 773 773 773 771 770 768 767 765 764 762 760 757 755 752 749 746 743 740 736 732 728 723 718 713 707 702 697 692 687 680 675 668 661 655 649 644 639 634 629 624 618
774 773 773 772 771 770 768 767 765 763 761 760 757 755 752 750 747 743 740 737 733 728 724 719 714 708 703 698 693 688 683 677 672 667 661 655 649 644 640 635 630 624 619
773 773 772 771 770 768 767 765 763 761 759 758 755 752 750 747 744 741 737 734 730 725 720 715 709 704 700 695 690 686 681 676 670 666 660 655 649 645 641 635 630 626 620
Wind_Speed
27 25 28 30 29 30 27 28 25 21 19 17 14 11 8 5 3 2 4 5 7 8 9 10 11 12 14 15 16 17 18 19 14 24 24 24 26 28 27 27 27 32 34
25 27 29 33 30 29 27 26 23 21 17 16 13 10 7 4 1 3 5 7 9 10 11 11 13 14 15 16 16 17 19 21 23 22 25 26 24 28 28 28 27 31 36
25 30 30 31 30 28 26 26 22 20 17 14 12 9 6 3 1 4 6 9 10 12 12 13 14 15 17 16 17 19 20 22 23 25 26 26 29 27 25 28 34 27 27
28 31 31 30 28 27 25 23 20 18 16 13 10 8 5 2 1 4 7 10 12 13 14 15 15 16 17 17 19 21 22 23 24 25 26 29 27 21 27 27 25 26 29
31 30 26 30 27 25 24 22 19 16 14 12 9 6 4 1 2 6 8 11 13 15 15 16 16 16 16 19 20 20 23 23 24 25 26 26 24 26 24 24 26 28 35
30 30 28 28 26 25 23 21 17 14 12 10 7 4 2 0 6 6 8 11 14 16 16 16 17 17 17 18 21 21 23 26 26 27 23 23 28 25 25 25 29 26 12
31 27 26 28 27 24 22 19 15 11 10 8 5 2 0 2 8 7 10 12 14 15 15 16 17 17 19 19 20 22 25 28 25 32 30 24 26 28 30 31 27 27 28
25 26 24 28 25 22 19 16 12 9 8 5 3 1 2 4 10 9 11 13 14 15 15 16 17 18 19 20 22 25 24 28 27 25 25 27 29 32 31 27 30 31 34
25 20 23 24 22 19 17 14 10 8 6 3 1 2 4 5 8 9 12 13 14 16 16 17 18 18 19 22 25 25 26 26 26 26 27 32 33 31 29 26 25 22 17
23 21 22 20 19 17 15 12 9 7 4 2 2 3 5 6 7 9 12 12 15 16 17 18 18 19 20 24 25 26 26 26 26 29 30 29 26 26 24 23 23 20 21
25 23 21 19 18 15 13 10 7 5 3 1 3 5 6 7 9 10 11 12 14 17 18 18 20 21 24 27 27 26 25 26 28 27 26 25 24 24 22 24 27 25 25
24 23 20 17 14 12 10 8 6 3 1 3 5 6 6 7 9 10 11 13 16 18 18 19 21 25 28 26 25 22 23 25 23 22 22 24 24 26 26 27 31 33 32
23 20 17 15 13 10 8 6 3 1 2 4 6 7 9 9 10 11 12 16 17 19 19 22 26 27 24 22 20 22 20 19 19 20 21 24 25 28 32 30 29 29 31
20 16 14 12 10 7 6 4 1 2 3 5 7 9 11 12 11 11 15 18 19 19 21 23 25 22 19 19 19 18 18 19 21 20 23 25 27 28 28 26 27 29 27
17 14 12 9 6 5 3 1 1 1 3 5 7 9 12 13 13 17 19 20 21 21 26 22 19 17 18 18 18 18 19 20 21 22 23 25 26 25 27 27 26 26 23
15 11 8 7 5 3 0 2 5 5 7 7 7 8 11 13 15 18 18 20 21 23 19 16 15 16 17 18 19 21 22 23 23 24 26 24 24 25 27 28 26 23 22
11 10 7 5 3 1 1 3 6 5 8 8 7 9 11 14 15 17 18 19 21 16 13 14 15 16 17 18 19 21 24 25 26 24 24 26 26 26 27 26 25 24 24
10 8 6 4 2 1 2 4 6 8 10 11 10 12 13 14 16 18 15 18 14 13 13 15 16 17 18 19 21 23 25 26 25 25 26 26 26 24 25 25 24 23 23
7 6 4 3 2 2 3 5 7 9 10 12 13 12 12 15 18 15 13 12 14 14 14 15 16 18 19 20 23 24 25 26 27 27 27 26 26 24 25 25 26 29 28
7 5 3 1 2 3 5 7 8 9 11 12 13 13 14 18 18 16 14 14 14 15 16 17 18 19 21 22 24 25 26 26 26 25 26 27 27 26 25 26 26 24 24
4 2 2 1 3 4 6 7 8 9 11 12 13 13 15 16 16 15 16 15 15 16 17 18 20 22 23 24 25 25 26 27 27 27 27 28 28 28 29 27 27 26 25
3 2 2 3 4 5 6 8 9 10 11 12 14 14 14 13 14 15 15 16 16 17 18 20 23 24 26 28 28 27 27 28 29 28 28 30 30 30 29 28 27 24 17
2 1 2 3 4 6 7 8 9 10 11 12 13 14 13 13 14 15 16 17 18 19 21 22 24 28 29 29 30 28 28 31 33 33 33 33 33 33 29 23 21 18 18
1 2 4 4 5 7 7 8 9 10 11 12 12 12 14 14 15 15 17 19 20 22 23 24 26 28 29 31 31 29 28 30 31 38 39 34 27 22 22 21 19 19 19
2 3 4 5 6 7 9 9 10 10 11 11 11 12 13 15 15 16 18 20 22 24 26 26 26 28 29 30 27 25 26 30 33 33 25 20 20 20 20 19 20 19 20
3 4 5 6 7 8 9 10 11 11 11 12 12 13 14 15 16 17 19 20 23 28 27 27 28 28 27 27 22 23 25 28 34 24 18 17 19 17 18 19 20 18 19
Wind_Direction
154 152 148 147 147 144 145 144 146 149 149 147 147 148 150 156 173 242 271 275 273 280 280 283 289 294 293 293 292 289 287 287 287 293 295 301 302 301 302 300 303 299 296
151 148 142 143 143 140 142 140 143 145 143 143 145 145 148 153 177 274 283 282 283 287 288 287 288 294 294 294 293 293 292 291 290 294 299 301 298 304 297 300 297 297 296
148 140 137 135 138 138 138 138 141 140 139 140 141 141 140 144 228 286 290 290 289 288 288 288 290 294 297 298 300 299 298 296 295 296 302 305 302 301 300 301 299 295 301
142 136 132 133 134 133 134 134 134 135 134 134 134 132 132 141 294 292 297 295 291 291 289 286 289 293 296 301 305 303 304 306 303 305 302 301 301 304 304 303 306 306 303
131 126 131 131 130 130 127 127 127 129 130 131 128 128 126 92 271 294 301 297 297 295 292 293 294 296 295 294 294 297 303 304 302 298 295 301 306 311 305 313 305 309 301
123 125 128 124 125 125 124 122 123 127 125 123 122 127 113 328 274 306 309 306 299 296 298 301 301 300 297 299 297 301 301 301 298 296 295 302 302 302 312 311 306 300 305
118 120 126 125 121 121 123 121 123 128 124 120 121 112 30 293 286 317 312 303 298 297 299 300 301 301 304 304 306 304 302 300 298 299 294 299 304 305 303 296 296 300 296
117 123 126 115 116 120 120 120 125 128 120 123 122 57 312 299 297 312 312 308 304 301 298 297 301 305 308 308 307 303 305 303 298 299 300 300 296 294 290 294 298 295 293
114 120 110 115 120 118 117 124 128 121 119 120 95 324 313 297 296 318 327 320 309 304 304 307 306 308 311 308 313 311 306 305 307 302 300 298 298 299 299 299 293 293 291
124 120 112 113 116 122 124 120 115 117 117 94 341 294 285 300 314 328 331 318 313 317 316 312 312 311 309 311 313 311 309 309 309 306 304 302 301 299 298 293 292 293 294
107 109 113 117 117 116 113 112 112 104 73 325 287 293 295 305 315 316 324 324 320 317 312 316 313 310 313 311 311 309 303 304 307 307 302 304 305 302 301 300 295 287 290
112 110 108 107 108 111 111 106 90 78 307 311 313 314 308 309 314 317 320 318 316 313 314 309 308 311 312 312 310 306 306 309 307 304 306 304 304 302 302 299 294 289 283
106 104 106 107 107 102 99 107 111 43 344 324 316 314 315 318 318 317 320 322 321 318 312 311 312 312 312 310 309 310 311 308 307 305 301 300 301 300 301 299 298 297 295
108 108 107 102 102 100 100 86 66 339 314 311 315 316 319 320 323 328 325 324 319 318 318 316 315 312 312 312 314 315 314 312 309 308 303 298 300 301 301 303 302 303 300
106 106 105 107 101 98 92 82 309 301 308 310 315 318 320 321 321 320 318 316 314 318 317 317 312 317 319 317 316 317 315 313 309 305 302 302 301 302 302 304 300 300 296
111 111 109 109 106 105 147 288 287 286 314 306 303 307 313 311 314 315 315 313 316 317 317 310 317 318 314 315 316 313 311 311 308 306 303 300 301 303 302 304 303 300 298
115 118 116 115 121 141 288 317 319 314 312 306 305 316 314 310 316 318 317 316 317 317 311 312 311 310 310 309 309 309 306 307 308 304 302 302 302 300 303 301 302 301 299
112 114 120 123 121 45 342 324 321 324 323 324 324 319 318 318 320 318 316 318 318 320 311 308 308 308 309 309 308 305 304 306 308 305 304 303 301 298 300 300 301 300 298
115 115 110 100 60 355 329 329 327 321 321 321 324 326 326 323 323 322 322 317 314 311 310 308 308 308 307 304 302 302 303 305 308 307 304 302 302 301 299 299 298 301 305
105 109 95 53 357 346 340 331 325 325 323 321 323 324 327 328 326 328 326 320 314 311 310 310 309 307 305 302 302 304 305 307 307 305 303 303 302 301 298 299 299 298 299
108 92 70 12 359 348 336 327 323 321 319 320 318 319 322 323 316 318 319 317 315 313 311 310 308 306 303 302 305 305 305 304 304 303 302 302 303 302 303 301 299 299 297
106 91 33 3 346 336 326 321 319 317 315 314 316 319 323 322 317 316 316 314 313 311 309 308 304 302 302 306 308 305 303 302 303 303 302 303 303 304 303 301 300 301 322
83 47 358 345 335 322 316 316 313 312 313 315 316 318 322 321 318 317 316 315 314 311 311 309 304 308 316 316 317 312 305 305 309 310 304 303 302 301 300 303 319 335 328
53 1 346 331 318 315 312 313 311 311 312 313 315 316 317 318 318 317 315 314 314 314 315 314 311 316 323 329 330 327 324 324 323 318 313 302 305 322 327 334 339 331 329
2 346 327 314 310 312 313 311 310 311 311 311 312 313 315 315 314 314 314 315 318 320 318 321 326 329 331 332 334 336 337 341 333 335 334 342 340 341 340 340 338 338 339
342 327 313 311 311 310 307 308 310 310 308 308 308 310 310 308 308 309 314 321 321 328 334 335 334 335 337 342 345 342 346 348 346 345 352 355 349 340 344 348 351 348 347